Fremont, NE

12:38 PM CDT on July 22, 2017 (GMT -0500)
Fremont Municipal

Weather History for KFET - October, 2012

Change the Weather History Date:

Wednesday, October 31, 2012

  Actual Average Record
Temperature  
Mean Temperature 45 °F -  
Max Temperature 60 °F 57 °F 82 °F (1950)
Min Temperature 30 °F 37 °F 11 °F (1993)
Degree Days  
Heating Degree Days 20    
Moisture  
Dew Point 32 °F    
Average Humidity 67    
Maximum Humidity 90    
Minimum Humidity 36    
Precipitation  
Precipitation 0.00 in - - ()
Sea Level Pressure  
Sea Level Pressure 30.03 in    
Wind  
Wind Speed 1 mph (South)    
Max Wind Speed 8 mph    
Max Gust Speed -    
Visibility 10 miles    
Events      
Averages and records for this station are not official NWS values.
T = Trace of Precipitation, MM = Missing Value Source: NWS Daily Summary

Daily Weather History Graph

Daily Weather History Graph

Search for Another Location

Airport or City:

Trip Planner

Search our weather history database for the weather conditions in past years. The results will help you decide how hot, cold, wet, or windy it might be!

Date:

Astronomy

Oct. 31, 2012 Rise Set
Actual Time 7:57 AM CDT 6:21 PM CDT
Civil Twilight 7:28 AM CDT 6:50 PM CDT
Nautical Twilight 6:55 AM CDT 7:22 PM CDT
Astronomical Twilight 6:23 AM CDT 7:55 PM CDT
Moon 7:32 PM CDT (10/31) 9:40 AM CDT (10/31)
Length of Visible Light 11h 21m
Length of Day
10h 24m
Full, 97% of the Moon is Illuminated
Oct 31
Full
Nov 6
Last Quarter
Nov 13
New
Nov 20
First Quarter
Nov 28
Full

Hourly Weather History & Observations

Time (CDT) Temp. Windchill Dew Point Humidity Pressure Visibility Wind Dir Wind Speed Gust Speed Precip Events Conditions
12:15 AM 36.5 °F - 31.1 °F 81% 30.05 in 10.0 mi Calm Calm - N/A   Clear
12:35 AM 35.8 °F - 31.3 °F 84% 30.05 in 10.0 mi Calm Calm - N/A   Clear
12:55 AM 35.6 °F - 31.6 °F 85% 30.05 in 10.0 mi Calm Calm - N/A   Scattered Clouds
1:15 AM 36.7 °F - 31.5 °F 81% 30.05 in 10.0 mi Calm Calm - N/A   Mostly Cloudy
1:35 AM 34.7 °F - 30.7 °F 85% 30.06 in 10.0 mi Calm Calm - N/A   Scattered Clouds
1:55 AM 34.7 °F - 30.2 °F 84% 30.06 in 10.0 mi Calm Calm - N/A   Clear
2:15 AM 35.2 °F - 30.2 °F 82% 30.06 in 10.0 mi Calm Calm - N/A   Clear
2:35 AM 34.2 °F - 29.5 °F 83% 30.05 in 10.0 mi Calm Calm - N/A   Clear
2:55 AM 32.9 °F - 28.9 °F 85% 30.06 in 10.0 mi Calm Calm - N/A   Clear
3:15 AM 32.0 °F 28.7 °F 28.8 °F 88% 30.06 in 10.0 mi West 3.5 mph - N/A   Clear
3:35 AM 31.6 °F 27.0 °F 29.1 °F 90% 30.06 in 10.0 mi West 4.6 mph - N/A   Clear
3:55 AM 32.0 °F - 28.9 °F 88% 30.06 in 10.0 mi Calm Calm - N/A   Clear
4:35 AM 32.7 °F - 28.8 °F 85% 30.06 in 10.0 mi Calm Calm - N/A   Scattered Clouds
4:55 AM 30.4 °F - 27.5 °F 89% 30.06 in 10.0 mi Calm Calm - N/A   Scattered Clouds
5:15 AM 31.5 °F - 28.4 °F 88% 30.06 in 10.0 mi Calm Calm - N/A   Scattered Clouds
5:35 AM 31.5 °F - 28.0 °F 87% 30.06 in 10.0 mi Calm Calm - N/A   Clear
5:55 AM 32.0 °F - 28.0 °F 85% 30.05 in 10.0 mi Calm Calm - N/A   Clear
6:15 AM 32.0 °F - 28.0 °F 85% 30.05 in 10.0 mi Calm Calm - N/A   Clear
6:35 AM 31.8 °F - 28.2 °F 87% 30.04 in 10.0 mi Calm Calm - N/A   Clear
6:55 AM 30.9 °F - 28.2 °F 90% 30.05 in 10.0 mi Calm Calm - N/A   Clear
7:15 AM 31.8 °F - 28.2 °F 87% 30.05 in 10.0 mi Calm Calm - N/A   Clear
7:35 AM 32.0 °F - 28.2 °F 86% 30.05 in 10.0 mi Calm Calm - N/A   Clear
7:55 AM 30.9 °F - 27.7 °F 88% 30.06 in 10.0 mi Calm Calm - N/A   Clear
8:15 AM 30.0 °F - 27.3 °F 90% 30.06 in 5.0 mi Calm Calm - N/A   Clear
8:35 AM 31.5 °F - 28.2 °F 88% 30.06 in 10.0 mi Calm Calm - N/A   Clear
8:55 AM 33.1 °F - 29.5 °F 87% 30.07 in 10.0 mi Calm Calm - N/A   Clear
9:15 AM 34.9 °F - 31.3 °F 87% 30.07 in 10.0 mi Calm Calm - N/A   Clear
9:35 AM 38.1 °F - 32.0 °F 79% 30.07 in 10.0 mi Calm Calm - N/A   Clear
9:55 AM 41.7 °F - 32.2 °F 69% 30.06 in 10.0 mi Calm Calm - N/A   Clear
10:15 AM 44.1 °F 41.5 °F 32.5 °F 64% 30.07 in 10.0 mi SSE 4.6 mph - N/A   Clear
10:35 AM 45.7 °F 43.4 °F 32.5 °F 60% 30.06 in 10.0 mi SSE 4.6 mph - N/A   Clear
10:55 AM 47.7 °F - 32.2 °F 55% 30.06 in 10.0 mi South 5.8 mph - N/A   Clear
11:15 AM 48.9 °F - 31.6 °F 51% 30.06 in 10.0 mi South 5.8 mph - N/A   Clear
11:35 AM 49.6 °F - 30.9 °F 49% 30.06 in 10.0 mi South 5.8 mph - N/A   Clear
11:55 AM 51.1 °F - 31.3 °F 47% 30.06 in 10.0 mi South 5.8 mph - N/A   Clear
12:15 PM 51.4 °F - 31.1 °F 46% 30.06 in 10.0 mi South 6.9 mph - N/A   Clear
12:35 PM 52.9 °F - 31.3 °F 44% 30.05 in 10.0 mi South 8.1 mph - N/A   Clear
12:55 PM 54.5 °F - 32.4 °F 43% 30.04 in 10.0 mi South 5.8 mph - N/A   Clear
1:15 PM 55.0 °F - 31.5 °F 41% 30.04 in 10.0 mi South 4.6 mph - N/A   Clear
1:55 PM 56.3 °F - 32.0 °F 40% 30.02 in 10.0 mi South 4.6 mph - N/A   Clear
2:15 PM 57.4 °F - 32.4 °F 39% 30.01 in 10.0 mi South 5.8 mph - N/A   Clear
2:35 PM 58.5 °F - 32.7 °F 38% 30.00 in 10.0 mi SSW 4.6 mph - N/A   Clear
2:55 PM 59.5 °F - 32.9 °F 37% 29.99 in 10.0 mi Calm Calm - N/A   Clear
3:15 PM 59.9 °F - 33.1 °F 36% 29.99 in 10.0 mi SSW 3.5 mph - N/A   Clear
3:35 PM 60.6 °F - 33.8 °F 37% 29.98 in 10.0 mi SSE 4.6 mph - N/A   Clear
3:55 PM 60.4 °F - 34.2 °F 37% 29.98 in 10.0 mi Calm Calm - N/A   Clear
4:15 PM 60.1 °F - 33.8 °F 37% 29.98 in 10.0 mi Calm Calm - N/A   Clear
4:35 PM 59.9 °F - 34.2 °F 38% 29.98 in 10.0 mi Calm Calm - N/A   Clear
4:55 PM 60.3 °F - 34.2 °F 38% 29.98 in 10.0 mi Calm Calm - N/A   Clear
5:15 PM 59.2 °F - 34.2 °F 39% 29.98 in 10.0 mi Calm Calm - N/A   Clear
5:35 PM 59.4 °F - 36.3 °F 42% 29.99 in 10.0 mi Calm Calm - N/A   Clear
5:55 PM 58.1 °F - 35.2 °F 42% 29.99 in 10.0 mi Calm Calm - N/A   Clear
6:15 PM 56.5 °F - 34.9 °F 44% 29.99 in 10.0 mi Calm Calm - N/A   Clear
6:35 PM 53.6 °F - 34.7 °F 49% 29.99 in 10.0 mi Calm Calm - N/A   Clear
7:15 PM 51.6 °F - 35.4 °F 54% 29.99 in 10.0 mi Calm Calm - N/A   Clear
7:35 PM 49.1 °F - 36.3 °F 61% 29.99 in 10.0 mi SE 3.5 mph - N/A   Clear
7:55 PM 50.4 °F - 36.0 °F 58% 30.00 in 7.0 mi Calm Calm - N/A   Clear
8:15 PM 49.6 °F - 36.0 °F 59% 29.99 in 10.0 mi Calm Calm - N/A   Clear
8:35 PM 48.2 °F - 36.0 °F 63% 29.99 in 10.0 mi Calm Calm - N/A   Clear
9:15 PM 45.3 °F - 36.5 °F 71% 29.99 in 10.0 mi Calm Calm - N/A   Clear
9:35 PM 44.6 °F - 36.0 °F 72% 29.99 in 10.0 mi Calm Calm - N/A   Clear
10:15 PM 43.0 °F - 35.6 °F 75% 29.99 in 10.0 mi Calm Calm - N/A   Mostly Cloudy
10:35 PM 43.0 °F - 35.6 °F 75% 29.99 in 10.0 mi Calm Calm - N/A   Mostly Cloudy
10:55 PM 42.4 °F - 36.3 °F 79% 29.99 in 10.0 mi Calm Calm - N/A   Mostly Cloudy
11:15 PM 43.7 °F - 36.9 °F 77% 29.99 in 10.0 mi Calm Calm - N/A   Overcast
11:35 PM 45.1 °F - 37.6 °F 75% 29.98 in 10.0 mi Calm Calm - N/A   Overcast
11:55 PM 44.8 °F - 38.7 °F 79% 29.98 in 10.0 mi Calm Calm - N/A   Overcast